User: anonymous   Login
Location: Corralito
(14.1667°N, 87.1833°W)
Time: 13:43:12
(UTC+00:00)
Language:

Nadezhda 4 Rocket - Orbit

View from above orbital plane
View from above orbital plane
View from above satellite
View from above satellite

Ground track
Ground track

The orbit data is extracted from the following two-line orbital elements,

1 23180U 94041B   21019.80219402  .00000131  00000-0  11488-3 0  9991
2 23180  82.9453  34.2613 0029815 141.9875  30.5845 13.77987793333416
Epoch (UTC): 19 January 2021 19:15:09
Eccentricity: 0.0029815
inclination: 82.9453°
perigee height: 949 km
apogee height: 993 km
right ascension of ascending node: 34.2613°
argument of perigee: 141.9875°
revolutions per day: 13.77987793
mean anomaly at epoch: 30.5845°
orbit number at epoch: 33341

The dashed part of the orbit path shows where the satellite is in the earth's shadow,  

DLR